Location: Newark
(47.5000°N, 4.6167°E)
Time: 11:30:27
(UTC+00:00)

ISS - Pass Details

Date: 06 December 2021
Orbit: 413 x 422 km, 51.6° (Epoch: 19 January)

Event Time Altitude Azimuth Distance (km) Brightness Sun altitude
Rises 16:53:44 0° 294° (WNW) 2,384 0.8 -10.2°
Reaches altitude 10° 16:55:51 10° 292° (WNW) 1,514 -0.2 -10.5°
Maximum altitude 16:59:15 70° 208° (SSW) 454 -3.5 -11.1°
Drops below altitude 10° 17:02:36 10° 125° (SE) 1,502 -1.3 -11.6°
Enters shadow 17:03:20 - 124° (SE) 1,803 -0.9 -11.7°
